Location: Edelsbach
(47.0167°N, 15.6000°E)
Time: 22:14:50
(UTC+00:00)

Cosmos 2360 Rocket - Pass Details

Date: 08 August 2020
Orbit: 833 x 845 km, 71.0° (Epoch: 22 September)

Event Time Altitude Azimuth Distance (km) Brightness Sun altitude
Rises 22:12:25 0° 331° (NNW) 3,415 6.6 -26.2°
Reaches altitude 10° 22:14:52 10° 330° (NNW) 2,476 5.6 -26.3°
Maximum altitude 22:20:33 75° 246° (WSW) 875 2.1 -26.5°
Enters shadow 22:20:49 74° 218° (SW) 882 2.1 -26.5°
